Home > Weather > Vereeniging > Past weeks

Flag for South Africa Past Weather in Vereeniging, South Africa — Yesterday and Last 2 Weeks

Now
34 °F

Chilly.


Feels Like: 29 °F
Forecast: 34 / 67 °F
Wind: 6 mph from Northwest

Location: Vereeniging

Current Time: Jun 1, 2016 at 7:31:17 AM

Latest Report: Jun 1, 2016 at 7:00 AM


Visibility: N/A

Pressure: 30.36 "Hg (25.36 "Hg at 1443m altitude)

Humidity: 93%

Dew Point: 32 °F

Location of VereenigingLocation

Past Weather in Vereeniging — Graph

°F

Vereeniging Temperature Yesterday

Maximum temperature yesterday: 68 °F (at 2:00 PM)
Minimum temperature yesterday: 34 °F (at 7:00 AM)
Average temperature yesterday: 50 °F

High & Low Weather Summary for the Past Weeks

 TemperatureHumidityPressure
High72 °F (May 17, 3:00 PM)94% (May 18, 8:00 AM)30.54 "Hg (May 18, 8:00 AM)
Low34 °F (May 30, 7:00 AM)20% (May 30, 3:00 PM)30.27 "Hg (May 24, 2:00 PM)
Average53 °F64%30.38 "Hg
* Reported May 17 6:00 AM — Jun 1 6:00 AM, Vereeniging, Weather by CustomWeather, © 2016

Note: Actual official high and low records may vary slightly from our data, if they occured in-between our weather recording intervals... More about our weather records

Advertising

Vereeniging Weather History for the Previous 24 Hours

Scroll right to see more
 ConditionsComfort  
Time TempWeatherWind HumidityBarometerVisibility
6:00 AM
Wed, Jun 1
36 °FChilly.7 mph87%30.36 "HgN/A
5:00 AM34 °FChilly.7 mph93%30.36 "HgN/A
4:00 AM37 °FChilly.7 mph81%30.33 "HgN/A
3:00 AM37 °FChilly.22 mph81%30.36 "HgN/A
2:00 AM39 °FChilly.22 mph75%30.36 "HgN/A
1:00 AM39 °FChilly.26 mph75%30.33 "HgN/A
12:00 AM41 °FQuite cool.7 mph70%30.33 "HgN/A
11:00 PM
Tue, May 31
41 °FQuite cool.7 mph70%30.36 "HgN/A
10:00 PM43 °FQuite cool.7 mph66%30.36 "HgN/A
7:00 PM54 °FCool.6 mph41%30.33 "HgN/A
6:00 PM57 °FRefreshingly cool.No wind33%30.30 "HgN/A
5:00 PM68 °FMild.No wind20%30.30 "HgN/A
4:00 PM68 °FMild.No wind20%30.30 "HgN/A
3:00 PM68 °FMild.8 mph21%30.30 "HgN/A
2:00 PM68 °FMild.7 mph21%30.30 "HgN/A
12:00 PM64 °FMild.10 mph30%30.33 "HgN/A
11:00 AM63 °FMild.8 mph37%30.39 "HgN/A
10:00 AM57 °FRefreshingly cool.8 mph44%30.39 "HgN/A
9:00 AM54 °FCool.31 mph54%30.39 "HgN/A
8:00 AM41 °FQuite cool.10 mph81%30.36 "HgN/A
7:00 AM34 °FChilly.7 mph93%30.33 "HgN/A
Weather by CustomWeather, © 2016

See weather overviewHow to use our weather pages